Regional Weather Roundup
Issued by NWS

Home | Current Version | Previous Version | Text Only | Print | Product List | Glossary Off
Versions: 1 2 3 4 5 6 7 8 9 10 11 12 13 14 15 16 17 18 19 20 21 22 23 24 25 26 27 28 29 30 31 32 33 34 35 36 37 38 39 40 41 42 43 44 45 46 47 48 49 50

000
ASUS43 KMKX 221800
RWRWI

WISCONSIN REGIONAL WEATHER ROUNDUP
NATIONAL WEATHER SERVICE MILWAUKEE/SULLIVAN WI
1200 PM CST SUN JAN 22 2017

NOTE: "FAIR" INDICATES FEW OR NO CLOUDS BELOW 12,000 FEET WITH NO
SIGNIFICANT WEATHER AND/OR OBSTRUCTIONS TO VISIBILITY.

WIZ001-002-006>008-014>016-023>028-221900-
NORTHWEST WISCONSIN

CITY           SKY/WX    TMP DP  RH WIND       PRES   REMARKS
SUPERIOR ARPT  CLOUDY    37  36  99 W3        29.70F
ASHLAND        CLOUDY    36  35  96 N3        29.68F FOG
6HR MIN TEMP:  34; 6HR MAX TEMP:  36;

HAYWARD        CLOUDY    36  34  92 N3        29.66F FOG
6HR MIN TEMP:  34; 6HR MAX TEMP:  36;

SIREN          CLOUDY    37  37  99 NW5       29.70S WCI  33
CUMBERLAND     CLOUDY    34  32  93 NW6       29.67F WCI  29
RICE LAKE      CLOUDY    36  36  99 NW3       29.69F
CHETEK         CLOUDY    35  35 100 CALM      29.67F
LADYSMITH      CLOUDY    36  35  99 NW5       29.66F WCI  32
EAU CLAIRE     CLOUDY    37  35  92 CALM      29.67S
MENOMONIE        N/A    N/A N/A N/A MISG        N/A
NEW RICHMOND   CLOUDY    36  36 100 NW7       29.70S FOG     WCI  30
OSCEOLA        CLOUDY    37  37 100 NW5       29.74S WCI  33
$$

WIZ003>005-009-010-017-018-221900-
NORTH CENTRAL WISCONSIN

CITY           SKY/WX    TMP DP  RH WIND       PRES   REMARKS
MANITOWISH WTR FOG       34  34 100 W3        29.62S VSB 1
ARBOR VITAE    CLOUDY    37  36  98 N3        29.62S
WOODRUFF       CLOUDY    37  36  98 N3        29.62S
RHINELANDER    CLOUDY    37  36  96 W3        29.62R FOG
6HR MIN TEMP:  34; 6HR MAX TEMP:  37;

EAGLE RIVER    CLOUDY    36  36 100 CALM      29.60F FOG
LAND O LAKES   CLOUDY    37  37 100 CALM      29.62F FOG
PHILLIPS       CLOUDY    34  34 100 CALM      29.63S FOG
6HR MIN TEMP:  33; 6HR MAX TEMP:  34;

TOMAHAWK       CLOUDY    36  35  97 CALM      29.63S
MEDFORD        CLOUDY    34  34  99 CALM      29.63F FOG
MERRILL        CLOUDY    37  37 100 CALM        N/A
6HR MIN TEMP:  33; 6HR MAX TEMP:  37;

$$

WIZ029-030-035-036-043>047-221900-
CENTRAL WISCONSIN

CITY           SKY/WX    TMP DP  RH WIND       PRES   REMARKS
WAUSAU         CLOUDY    35  35 100 W5        29.62F FOG     WCI  31
6HR MIN TEMP:  34; 6HR MAX TEMP:  35;

MOSINEE        CLOUDY    36  36 100 W3        29.64F
MARSHFIELD     FOG       35  35 100 NW5       29.63F VSB 1/4 WCI  31
6HR MIN TEMP:  34; 6HR MAX TEMP:  35;

STEVENS POINT  CLOUDY    34  34 100 W3        29.65F FOG
WAUPACA        CLOUDY    39  38  97 CALM      29.65F FOG
WAUTOMA        CLOUDY    39  38  96 W3        29.65F FOG
6HR MIN TEMP:  33; 6HR MAX TEMP:  39;

WISC RAPIDS    CLOUDY    36  36 100 NW5       29.65F WCI  32
6HR MIN TEMP:  35; 6HR MAX TEMP:  37;

CAMP DOUGLAS   CLOUDY    37  37 100 W6        29.65F FOG     WCI  33
$$

WIZ011>013-019>022-031-037>040-048>050-221900-
NORTHEAST WISCONSIN

CITY           SKY/WX    TMP DP  RH WIND       PRES   REMARKS
ANTIGO         FOG       34  34 100 CALM      29.62F VSB 1/2
SHAWANO        CLOUDY    38  37  96 SW5       29.64F FOG     WCI  35
OCONTO         CLOUDY    37  37  99 W3        29.63F VSB 1
STURGEON BAY   FOG       39  39 100 SW3       29.63F VSB 1/4
6HR MIN TEMP:  37; 6HR MAX TEMP:  39;

GREEN BAY      FOG       39  39 100 SW3       29.63F VSB 1/2
6HR MIN TEMP:  36; 6HR MAX TEMP:  39;

MANITOWOC      NOT AVBL
APPLETON       FOG       37  37 100 VRB6      29.62F VSB 1/4 WCI  33
CLINTONVILLE   DRIZZLE   37  36  93 W5        29.64F WCI  34
OSHKOSH        FOG       38  37  97 W6        29.64S VSB 3/4 WCI  33
6HR MIN TEMP:  34; 6HR MAX TEMP:  38;

$$

WIZ032>034-041-042-053>061-221900-
SOUTHWEST WISCONSIN

CITY           SKY/WX    TMP DP  RH WIND       PRES   REMARKS
LA CROSSE      CLOUDY    40  36  86 N3        29.68S FOG
6HR MIN TEMP:  37; 6HR MAX TEMP:  40;

SPARTA         CLOUDY    35  35 100 W3        29.68S FOG
VIROQUA        CLOUDY    35  35 100 W3        29.66S VSB<1/4
6HR MIN TEMP:  34; 6HR MAX TEMP:  35;

BOSCOBEL       CLOUDY    40  36  86 CALM      29.68S
6HR MIN TEMP:  36; 6HR MAX TEMP:  40;

PRAIRIE DU CHI CLOUDY    37  36  96 CALM      29.69S FOG
PLATTEVILLE    CLOUDY    37  37 100 W5        29.67S WCI  34
$$

WIZ056-057-062-063-064-067-068-221900-
SOUTH CENTRAL WISCONSIN

CITY           SKY/WX    TMP DP  RH WIND       PRES   REMARKS
REEDSBURG      CLOUDY    37  37 100 W6        29.65F FOG     WCI  33
BARABOO/DELLS  CLOUDY    37  37  99 W3        29.65S FOG
LONE ROCK      NOT AVBL
MINERAL POINT  CLOUDY    39  39 100 W5        29.65F
MADISON        CLOUDY    39  37  92 CALM      29.65F FOG
6HR MIN TEMP:  37; 6HR MAX TEMP:  40;

MIDDLETON      CLOUDY    40  40 100 W3        29.65F
WATERTOWN      CLOUDY    38  38 100 CALM      29.64F FOG
MONROE         CLOUDY    37  37 100 CALM      29.64F
JANESVILLE     CLOUDY    39  37  93 CALM      29.65F
$$

WIZ051-052-058>065-066-070>072-221900-
SOUTHEAST WISCONSIN

CITY           SKY/WX    TMP DP  RH WIND       PRES   REMARKS
MILWAUKEE      CLOUDY    46  39  76 NW3       29.63F
6HR MIN TEMP:  40; 6HR MAX TEMP:  46;

WAUKESHA       CLOUDY    39  37  93 W5        29.64F
MILWAUKEE/TIMM CLOUDY    43  37  81 N5        29.64F
RACINE         CLOUDY    44  39  82 NE5       29.64F
6HR MIN TEMP:  37; 6HR MAX TEMP:  45;

KENOSHA        CLOUDY    44  39  82 W5        29.63F
6HR MIN TEMP:  38; 6HR MAX TEMP:  44;

FOND DU LAC    CLOUDY    40  37  89 SW3       29.63F
6HR MIN TEMP:  36; 6HR MAX TEMP:  40;

SHEBOYGAN      CLOUDY    42  39  89 W6        29.63F
6HR MIN TEMP:  36; 6HR MAX TEMP:  42;

WEST BEND      CLOUDY    43  39  87 NW3       29.63F
JUNEAU         FOG       38  38  99 CALM      29.65F VSB 1/2
$$

LSZ147-162-221900-
LAKE SUPERIOR

STATION/POSITION TIME  TEMP    WIND        PRES    WAVE
                       AIR SEA DIR/SP/G            HT/PER
                 (UTC) (F)     (DEG/KT/KT) (MB)    (FT/S)
DEVILS ISLAND    1700   36     360/  6/  7 1005.8R
PORT WING        1730   35     300/  2/  3 1005.8S
SAXON HARBOR     1740   34     300/  5/  7 1004.7S
$$

LMZ867-665-643>646-221900-
LAKE MICHIGAN

STATION/POSITION TIME  TEMP    WIND        PRES    WAVE
                       AIR SEA DIR/SP/G            HT/PER
                 (UTC) (F)     (DEG/KT/KT) (MB)    (FT/S)
NORTHPORT PIER   1740   35        CALM     1003.7F
SISTER BAY       1705   39        CALM       N/A
KEWAUNEE LAKESHO 1730   39     290/  3/  6 1003.4F
SHEBOYGAN LAKESH 1700   42     260/  4/  4 1004.1F
PORT WASHINGTON  1730   43     290/  3/  5 1004.7F
KENOSHA   LAKESH 1700   42        CALM     1004.4
$$

TC  - TEMPERATURE IN CELSIUS
VSB - VISIBILITY IN STATUTE MILES
WCI - WIND CHILL INDEX
HX  - HEAT INDEX




USA.gov is the U.S. government's official web portal to all federal, state and local government web resources and services.